1486116000.42,41478,10.13,72764.0,-1.63,-32.63,-32.97,0,*51
1486116001.68,41479,10.13,72768.5,-1.63,-31.57,-31.95,0,*55
1486116002.91,41480,10.13,72766.3,-1.63,-33.03,-34.31,0,*5B
1486116004.16,41481,10.13,72760.3,-1.61,-34.47,-35.29,0,*57
1486116005.43,41482,10.13,72758.0,-1.61,-34.07,-34.83,0,*51
1486116006.7,41483,10.13,72760.3,-1.61,-33.49,-34.47,0,*55
1486116007.93,41484,10.13,72768.0,-1.59,-33.31,-33.83,0,*59
1486116009.16,41485,10.13,72766.5,-1.59,-33.27,-34.41,0,*56
1486116010.37,41486,10.13,72764.3,-1.55,-35.71,-36.97,0,*55
1486116011.61,41487,10.13,72762.5,-1.55,-36.19,-37.21,0,*55
1486116012.83,41488,10.13,72760.0,-1.55,-35.65,-36.19,0,*58
1486116014.07,41489,10.13,72762.0,-1.55,-35.29,-35.65,0,*59
1486116015.31,41490,10.13,72770.5,-1.51,-35.47,-35.95,0,*52
1486116016.54,41491,10.13,72774.5,-1.53,-36.31,-36.19,0,*54
1486116017.78,41492,10.13,72768.3,-1.51,-38.49,-38.43,0,*55
1486116019.01,41493,10.13,72762.8,-1.53,-37.75,-37.27,0,*5B
1486116020.24,41494,10.13,72758.0,-1.53,-36.97,-36.19,0,*5D
1486116021.48,41495,10.13,72752.5,-1.51,-37.93,-37.27,0,*57
1486116022.7,41496,10.13,72750.8,-1.51,-38.23,-37.27,0,*50
1486116023.95,41497,10.13,72762.0,-1.53,-36.73,-36.01,0,*5D
1486116025.18,41498,10.13,72772.0,-1.51,-36.79,-36.31,0,*59
1486116026.41,41499,10.13,72778.5,-1.53,-37.75,-38.05,0,*5E
1486116027.63,41500,10.13,72764.3,-1.51,-39.03,-39.47,0,*55
1486116028.88,41501,10.13,72764.0,-1.53,-39.23,-39.47,0,*54
1486116030.14,41502,10.13,72758.8,-1.55,-36.49,-36.49,0,*53
1486116031.4,41503,10.13,72754.8,-1.55,-35.83,-35.65,0,*5A
1486116032.7,41504,10.13,72758.3,-1.53,-35.95,-35.95,0,*53
1486116033.96,41505,10.13,72770.3,-1.53,-35.29,-35.07,0,*5E
1486116035.19,41506,10.13,72754.8,-1.51,-36.43,-36.13,0,*56
1486116036.42,41507,10.13,72752.0,-1.51,-36.13,-35.59,0,*5F
1486116037.68,41508,10.13,72752.0,-1.51,-36.37,-35.95,0,*56
1486116038.91,41509,10.13,72758.5,-1.51,-36.01,-35.23,0,*5F
1486116040.16,41510,10.13,72756.0,-1.51,-35.23,-34.31,0,*56
1486116041.42,41511,10.13,72758.5,-1.49,-34.77,-33.73,0,*5F
1486116042.66,41512,10.13,72758.8,-1.47,-34.77,-33.83,0,*5D
1486116043.95,41513,10.13,72754.5,-1.47,-34.65,-33.89,0,*55
1486116045.22,41514,10.13,72750.3,-1.43,-34.65,-33.83,0,*5C
1486116046.47,41515,10.13,72754.3,-1.43,-35.13,-34.31,0,*53
1486116047.73,41516,10.19,72762.0,-1.43,-34.35,-33.37,0,*54
1486116048.96,41517,10.13,72756.3,-1.41,-35.13,-33.77,0,*56
1486116050.22,41518,10.13,72752.0,-1.39,-34.25,-32.79,0,*5D
1486116051.5,41519,10.13,72756.8,-1.39,-33.77,-32.45,0,*53
1486116052.8,41520,10.13,72760.5,-1.35,-34.01,-32.75,0,*50
1486116054.05,41521,10.13,72754.5,-1.31,-34.07,-33.73,0,*54
1486116055.3,41522,10.13,72760.3,-1.31,-34.19,-34.25,0,*5C
1486116056.55,41523,10.13,72754.5,-1.31,-33.83,-34.35,0,*58
1486116057.81,41524,10.13,72752.3,-1.31,-34.35,-34.89,0,*52
1486116059.06,41525,10.13,72750.8,-1.27,-33.83,-34.35,0,*59
1486116060.31,41526,10.13,72750.3,-1.27,-33.83,-34.19,0,*54
1486116061.56,41527,10.13,72744.8,-1.27,-34.13,-34.19,0,*5B
1486116062.79,41528,10.13,72750.0,-1.25,-34.31,-34.25,0,*59
1486116064.07,41529,10.13,72754.5,-1.23,-34.31,-33.89,0,*5F
1486116065.28,41530,10.13,72758.0,-1.25,-34.07,-33.37,0,*51
1486116066.56,41531,10.13,72756.5,-1.23,-34.83,-33.77,0,*5E
1486116067.82,41532,10.13,72754.0,-1.23,-34.31,-33.15,0,*50
1486116069.03,41533,10.13,72752.0,-1.21,-34.59,-33.15,0,*5D
1486116070.26,41534,10.13,72762.0,-1.21,-34.19,-32.23,0,*5A
1486116071.5,41535,10.13,72758.0,-1.21,-33.67,-32.19,0,*5C
1486116072.74,41536,10.13,72764.5,-1.21,-32.75,-31.17,0,*50
1486116073.96,41537,10.13,72766.8,-1.19,-32.13,-31.33,0,*5C
1486116075.22,41538,10.13,72764.8,-1.19,-31.79,-31.23,0,*5D
1486116076.5,41539,10.13,72760.5,-1.19,-31.11,-30.39,0,*58
1486116077.79,41540,10.13,72766.3,-1.19,-30.05,-30.73,0,*5C
1486116079.01,41541,10.13,72760.0,-1.17,-30.23,-31.11,0,*52
1486116080.26,41542,10.13,72754.0,-1.15,-29.83,-32.07,0,*55
1486116081.5,41543,10.13,72744.3,-1.17,-30.55,-32.29,0,*59
1486116082.73,41544,10.13,72740.8,-1.15,-30.05,-33.55,0,*53
1486116083.96,41545,10.13,72756.0,-1.17,-30.23,-34.53,0,*55
1486116085.21,41546,10.13,72760.3,-1.17,-31.85,-37.09,0,*57
1486116086.49,41547,10.13,72756.5,-1.19,-34.95,-39.03,0,*58
1486116087.69,41548,10.13,72746.5,-1.21,-35.29,-38.17,0,*5E
1486116088.92,41549,10.13,72756.5,-1.21,-36.13,-38.35,0,*55
1486116090.16,41550,10.13,72762.0,-1.23,-36.67,-38.43,0,*5D
1486116091.39,41551,10.13,72758.5,-1.25,-37.03,-38.49,0,*53
1486116092.64,41552,10.13,72758.3,-1.25,-35.95,-37.21,0,*5C
1486116093.85,41553,10.13,72758.5,-1.25,-34.89,-36.01,0,*52
1486116095.05,41554,10.13,72766.5,-1.25,-35.71,-36.19,0,*5A
1486116096.3,41555,10.13,72756.8,-1.27,-37.69,-38.05,0,*51
1486116097.54,41556,10.13,72758.8,-1.29,-37.69,-38.43,0,*5E
1486116098.77,41557,10.13,72752.0,-1.29,-38.85,-39.23,0,*55
1486116100.02,41558,10.13,72758.8,-1.29,-40.21,-40.85,0,*59
1486116101.28,41559,10.13,72752.3,-1.39,-40.73,-40.97,0,*5D
1486116102.51,41560,10.13,72758.8,-1.39,-42.37,-42.37,0,*5D
1486116103.73,41561,10.13,72748.0,-1.45,-42.75,-42.25,0,*52
1486116104.95,41562,10.13,72748.8,-1.49,-43.35,-41.61,0,*5B
1486116106.23,41563,10.13,72748.5,-1.53,-42.05,-38.91,0,*52
1486116107.47,41564,10.13,72754.3,-1.55,-40.03,-35.07,0,*55
1486116108.72,41565,10.13,72756.5,-1.59,-37.81,-30.83,0,*5B
1486116109.93,41566,10.13,72754.3,-1.59,-35.71,-27.13,0,*5A
1486116111.17,41567,10.13,72752.8,-1.61,-31.17,-23.59,0,*5E
1486116112.43,41568,10.13,72756.3,-1.61,-27.03,-21.67,0,*5C
1486116113.67,41569,10.13,72758.5,-1.61,-23.13,-21.43,0,*5E
1486116114.95,41570,10.13,72752.0,-1.61,-21.27,-21.97,0,*5A
1486116116.24,41571,10.13,72748.5,-1.61,-21.03,-24.71,0,*50
1486116117.48,41572,10.13,72746.0,-1.59,-23.23,-29.57,0,*51
1486116118.77,41573,10.13,72744.0,-1.61,-28.59,-33.49,0,*59
1486116120.03,41574,10.13,72744.8,-1.55,-32.97,-34.95,0,*56
1486116121.27,41575,10.13,72748.0,-1.61,-35.77,-34.77,0,*55
1486116122.53,41576,10.13,72748.0,-1.61,-37.45,-34.31,0,*57
1486116123.76,41577,10.13,72754.5,-1.63,-37.09,-33.21,0,*5A
1486116124.98,41578,10.13,72756.0,-1.67,-34.13,-31.45,0,*59
1486116126.22,41579,10.13,72752.8,-1.67,-32.19,-31.67,0,*54
1486116127.46,41580,10.13,72754.3,-1.67,-30.77,-31.45,0,*58
1486116128.72,41581,10.13,72752.5,-1.69,-29.95,-32.85,0,*5C
1486116129.96,41582,10.13,72760.8,-1.71,-32.23,-35.35,0,*5D
1486116131.24,41583,10.13,72760.5,-1.73,-34.83,-37.39,0,*5C
1486116132.5,41584,10.13,72766.5,-1.75,-36.79,-38.49,0,*52
1486116133.76,41585,10.13,72766.8,-1.77,-38.61,-39.23,0,*5B
1486116135.01,41586,10.13,72760.0,-1.81,-38.91,-39.41,0,*5A
1486116136.24,41587,10.13,72764.8,-1.85,-38.43,-39.59,0,*59
1486116137.47,41588,10.13,72764.8,-1.89,-38.05,-39.29,0,*5F
1486116138.7,41589,10.19,72764.8,-1.87,-38.61,-39.85,0,*54
1486116139.95,41590,10.13,72758.8,-1.89,-38.49,-39.03,0,*56
1486116141.17,41591,10.13,72750.8,-1.89,-36.73,-36.55,0,*5C
1486116142.45,41592,10.13,72748.0,-1.87,-38.23,-38.23,0,*55
1486116143.65,41593,10.13,72744.5,-1.89,-38.05,-38.85,0,*52
1486116144.91,41594,10.13,72754.0,-1.89,-38.49,-38.91,0,*58
1486116146.18,41595,10.13,72758.5,-1.87,-37.87,-38.29,0,*59
1486116147.4,41596,10.13,72760.3,-1.87,-38.61,-38.73,0,*52
1486116148.68,41597,10.13,72762.3,-1.87,-39.41,-39.59,0,*59
1486116149.95,41598,10.13,72760.8,-1.87,-40.79,-40.79,0,*5F
1486116151.21,41599,10.13,72764.3,-1.89,-40.41,-40.41,0,*50
1486116152.45,41600,10.13,72764.8,-1.89,-40.41,-40.47,0,*55
1486116153.73,41601,10.13,72752.3,-1.91,-40.09,-39.97,0,*52
1486116155.01,41602,10.13,72766.3,-1.91,-39.53,-39.71,0,*58
1486116156.25,41603,10.13,72756.5,-1.93,-40.15,-40.29,0,*54
1486116157.47,41604,10.13,72762.0,-1.91,-40.65,-40.47,0,*5E
1486116158.67,41605,10.13,72758.5,-1.93,-40.47,-40.47,0,*5D
1486116159.87,41606,10.13,72762.0,-1.93,-40.47,-40.65,0,*5E
1486116161.12,41607,10.13,72752.5,-1.93,-40.79,-40.79,0,*5F
1486116162.38,41608,10.13,72744.5,-1.95,-41.55,-41.61,0,*51
1486116163.58,41609,10.13,72750.3,-1.97,-41.17,-41.41,0,*56
1486116164.85,41610,10.13,72754.8,-1.99,-40.79,-40.79,0,*53
1486116166.14,41611,10.13,72748.0,-1.99,-40.85,-40.85,0,*52
1486116167.4,41612,10.13,72750.0,-1.99,-40.03,-40.09,0,*5B
1486116168.6,41613,10.19,72750.0,-2.01,-39.91,-39.85,0,*57
1486116169.86,41614,10.13,72748.0,-2.01,-39.71,-40.09,0,*54
1486116171.12,41615,10.13,72754.8,-2.01,-40.29,-40.59,0,*53
1486116172.35,41616,10.13,72756.5,-2.01,-40.47,-40.59,0,*58
1486116173.58,41617,10.13,72756.8,-2.01,-40.09,-40.03,0,*5C
1486116174.84,41618,10.13,72754.0,-2.05,-39.97,-40.09,0,*54
1486116176.05,41619,10.13,72756.8,-2.05,-40.15,-40.35,0,*5E
1486116177.29,41620,10.13,72750.3,-2.07,-40.35,-40.65,0,*51
1486116178.49,41621,10.19,72758.5,-2.05,-40.35,-40.47,0,*52
1486116179.7,41622,10.13,72754.3,-2.05,-40.73,-40.65,0,*53
1486116180.92,41623,10.13,72750.3,-2.07,-40.53,-40.47,0,*52
1486116182.15,41624,10.13,72730.8,-2.07,-40.65,-40.53,0,*55
1486116183.38,41625,10.19,72734.8,-2.07,-40.73,-40.65,0,*56
1486116184.6,41626,10.19,72736.0,-2.09,-40.91,-40.91,0,*5C
1486116185.86,41627,10.13,72742.0,-2.11,-40.97,-41.03,0,*58
1486116187.12,41628,10.13,72732.3,-2.11,-40.97,-40.91,0,*5D
1486116188.39,41629,10.19,72744.0,-2.11,-40.91,-40.97,0,*5C
1486116189.61,41630,10.13,72734.3,-2.15,-40.91,-40.73,0,*5A
1486116190.89,41631,10.13,72744.8,-2.13,-40.29,-40.41,0,*5F
1486116192.12,41632,10.13,72742.5,-2.15,-40.65,-40.85,0,*5A
1486116193.35,41633,10.13,72750.5,-2.15,-41.29,-41.35,0,*58
1486116194.56,41634,10.13,72748.5,-2.15,-41.17,-41.17,0,*52
1486116195.77,41635,10.13,72744.8,-2.15,-40.73,-40.65,0,*54
1486116197.04,41636,10.13,72748.0,-2.17,-40.29,-40.29,0,*52
1486116198.27,41637,10.13,72742.3,-2.19,-40.35,-40.29,0,*50
1486116199.5,41638,10.13,72748.5,-2.19,-41.35,-41.41,0,*51
1486116200.73,41639,10.13,72750.0,-2.19,-41.99,-42.19,0,*58
1486116201.98,41640,10.19,72752.8,-2.19,-41.81,-41.81,0,*5D
1486116203.21,41641,10.19,72742.3,-2.19,-40.79,-40.73,0,*56
1486116204.44,41642,10.13,72744.5,-2.23,-41.81,-41.99,0,*5F
1486116205.69,41643,10.13,72744.8,-2.23,-41.61,-41.67,0,*51
1486116206.89,41644,10.13,72746.3,-2.27,-41.29,-41.17,0,*59
1486116208.13,41645,10.19,72746.3,-2.27,-41.35,-41.29,0,*58
1486116209.39,41646,10.13,72746.8,-2.29,-41.55,-41.73,0,*5C
1486116210.66,41647,10.13,72754.5,-2.29,-41.73,-41.67,0,*5C
1486116211.89,41648,10.19,72758.3,-2.29,-41.73,-41.87,0,*5D
1486116213.18,41649,10.13,72758.0,-2.33,-41.93,-41.93,0,*5C
1486116214.41,41650,10.13,72744.3,-2.33,-41.61,-41.61,0,*54
1486116215.65,41651,10.13,72746.5,-2.33,-40.91,-40.73,0,*59
1486116216.94,41652,10.19,72748.5,-2.33,-40.09,-40.09,0,*56
1486116218.22,41653,10.13,72738.3,-2.37,-40.21,-39.97,0,*50
1486116219.46,41654,10.13,72738.5,-2.35,-38.79,-38.73,0,*5C
1486116220.74,41655,10.13,72740.8,-2.33,-39.53,-39.41,0,*52
1486116221.97,41656,10.19,72750.5,-2.33,-38.17,-38.17,0,*52
1486116223.2,41657,10.13,72740.3,-2.31,-39.29,-39.35,0,*5C
1486116224.41,41658,10.19,72738.8,-2.31,-39.85,-39.85,0,*5E
1486116225.69,41659,10.13,72746.5,-2.31,-37.81,-37.63,0,*53
1486116226.93,41660,10.13,72750.8,-2.31,-37.63,-37.57,0,*52
1486116228.16,41661,10.13,72752.8,-2.29,-38.73,-38.85,0,*54
1486116229.4,41662,10.13,72742.3,-2.29,-40.15,-40.03,0,*59
1486116230.67,41663,10.13,72736.5,-2.27,-40.41,-40.59,0,*58
1486116231.93,41664,10.19,72742.3,-2.27,-40.85,-40.85,0,*56
1486116233.17,41665,10.19,72738.8,-2.31,-40.85,-40.65,0,*5E
1486116234.42,41666,10.13,72738.0,-2.31,-40.15,-40.29,0,*5C
1486116235.69,41667,10.13,72736.5,-2.33,-40.15,-40.21,0,*57
1486116236.94,41668,10.19,72738.3,-2.33,-40.21,-40.35,0,*5A
1486116238.17,41669,10.19,72714.5,-2.33,-38.73,-38.73,0,*5E
1486116239.41,41670,10.13,72732.8,-2.33,-38.17,-38.43,0,*57
1486116240.64,41671,10.13,72722.8,-2.33,-38.55,-38.73,0,*53
1486116241.85,41672,10.19,72728.5,-2.31,-38.97,-38.85,0,*55
1486116243.11,41673,10.19,72736.0,-2.31,-38.11,-38.29,0,*5C
1486116244.35,41674,10.13,72738.0,-2.31,-40.03,-40.09,0,*5A
1486116245.6,41675,10.19,72742.3,-2.31,-41.23,-41.11,0,*50
1486116246.87,41676,10.19,72742.3,-2.31,-41.67,-41.55,0,*53
1486116248.16,41677,10.13,72734.0,-2.33,-41.55,-41.55,0,*51
1486116249.42,41678,10.13,72730.3,-2.35,-40.59,-40.59,0,*58
1486116250.65,41679,10.19,72728.5,-2.37,-39.09,-39.47,0,*51
1486116251.94,41680,10.13,72720.8,-2.37,-40.29,-40.41,0,*53
1486116253.21,41681,10.13,72730.8,-2.37,-39.79,-40.03,0,*5F
1486116254.47,41682,10.13,72738.5,-2.37,-39.09,-39.03,0,*55
1486116255.68,41683,10.13,72728.3,-2.35,-38.05,-38.17,0,*5F
1486116256.94,41684,10.13,72728.0,-2.35,-37.69,-37.69,0,*5B
1486116258.17,41685,10.19,72730.0,-2.33,-37.45,-37.57,0,*5F
1486116259.43,41686,10.19,72714.5,-2.31,-36.37,-36.37,0,*5D
1486116260.68,41687,10.13,72720.0,-2.33,-35.89,-35.89,0,*5E
1486116261.91,41688,10.13,72724.8,-2.27,-35.17,-35.35,0,*54
1486116263.13,41689,10.19,72736.3,-2.27,-35.77,-35.47,0,*56
1486116264.37,41690,10.13,72742.3,-2.27,-35.95,-36.73,0,*56
1486116265.58,41691,10.19,72744.0,-2.27,-36.43,-36.97,0,*55
1486116266.83,41692,10.13,72746.5,-2.27,-36.13,-36.79,0,*53
1486116268.09,41693,10.19,72750.3,-2.21,-37.03,-37.21,0,*58
1486116269.35,41694,10.19,72734.5,-2.21,-35.71,-35.35,0,*5F
1486116270.55,41695,10.19,72742.0,-2.19,-33.55,-31.79,0,*59
1486116271.8,41696,10.13,72738.8,-2.19,-32.45,-34.83,0,*5A
1486116273.01,41697,10.13,72734.3,-2.19,-33.83,-32.91,0,*55
1486116274.3,41698,10.13,72746.3,-2.17,-31.11,-30.77,0,*57
1486116275.53,41699,10.19,72752.0,-2.17,-29.95,-32.57,0,*53
1486116276.75,41700,10.19,72760.0,-2.15,-33.67,-36.01,0,*51
1486116277.99,41701,10.13,72762.0,-2.15,-36.97,-37.99,0,*5A
1486116279.22,41702,10.19,72764.8,-2.15,-38.91,-39.35,0,*59
1486116280.48,41703,10.19,72762.8,-2.13,-39.59,-39.85,0,*50
1486116281.72,41704,10.19,72750.5,-2.15,-39.85,-39.97,0,*53
1486116282.96,41705,10.19,72746.8,-2.15,-39.91,-39.97,0,*57
1486116284.2,41706,10.19,72734.3,-2.15,-39.15,-38.97,0,*59
1486116285.43,41707,10.19,72710.0,-2.19,-38.35,-38.23,0,*58
1486116286.68,41708,10.19,72730.3,-2.17,-36.61,-36.43,0,*5E
1486116287.92,41709,10.19,72740.5,-2.15,-36.49,-37.15,0,*55
1486116289.15,41710,10.19,72728.5,-2.15,-38.29,-38.73,0,*5A
1486116290.38,41711,10.19,72732.0,-2.15,-34.71,-35.29,0,*58
1486116291.58,41712,10.13,72736.0,-2.15,-35.71,-37.03,0,*50
1486116292.79,41713,10.19,72742.0,-2.15,-37.33,-38.17,0,*5F
1486116293.99,41714,10.19,72756.0,-2.15,-38.73,-39.35,0,*52
1486116295.22,41715,10.19,72756.0,-2.17,-40.53,-40.53,0,*52
1486116296.44,41716,10.19,72736.5,-2.19,-38.97,-39.15,0,*54
1486116297.69,41717,10.13,72722.8,-2.17,-38.55,-38.91,0,*58
1486116298.96,41718,10.19,72708.3,-2.17,-36.43,-36.25,0,*5F
1486116300.21,41719,10.13,72706.8,-2.17,-36.07,-36.49,0,*54
1486116301.44,41720,10.19,72716.8,-2.17,-35.17,-36.01,0,*50
1486116302.67,41721,10.13,72724.8,-2.15,-35.65,-36.43,0,*50
1486116303.91,41722,10.19,72728.5,-2.15,-36.01,-36.25,0,*52
1486116305.15,41723,10.19,72758.0,-2.13,-35.47,-35.29,0,*5B
1486116306.43,41724,10.19,72766.8,-2.13,-34.35,-34.65,0,*51
1486116307.67,41725,10.19,72758.8,-2.11,-36.31,-36.73,0,*51
1486116308.9,41726,10.19,72754.5,-2.09,-36.67,-37.09,0,*54
1486116310.14,41727,10.13,72748.8,-2.09,-36.85,-37.09,0,*59
1486116311.39,41728,10.19,72758.8,-2.09,-36.91,-37.09,0,*53
1486116312.6,41729,10.19,72758.8,-2.09,-38.05,-38.17,0,*51
1486116313.89,41730,10.13,72738.8,-2.07,-38.49,-38.29,0,*52
1486116315.13,41731,10.19,72736.3,-2.07,-36.97,-36.97,0,*55
1486116316.39,41732,10.13,72742.8,-2.07,-36.61,-36.85,0,*5C
1486116317.62,41733,10.19,72750.0,-2.05,-36.61,-36.67,0,*53
1486116318.86,41734,10.19,72740.3,-2.05,-36.61,-36.97,0,*5B
1486116320.09,41735,10.19,72746.3,-2.05,-37.15,-37.21,0,*54
1486116321.3,41736,10.13,72744.8,-2.01,-37.75,-37.87,0,*59
1486116322.51,41737,10.19,72730.3,-2.01,-38.43,-38.43,0,*55
1486116323.73,41738,10.19,72742.0,-2.01,-36.79,-36.97,0,*5A
1486116325.02,41739,10.19,72744.0,-1.99,-37.21,-37.51,0,*5E
1486116326.28,41740,10.13,72748.8,-1.99,-36.91,-36.97,0,*51
1486116327.56,41741,10.19,72760.0,-1.99,-36.37,-36.91,0,*5A
1486116328.79,41742,10.19,72748.5,-1.99,-38.05,-38.43,0,*57
1486116330.05,41743,10.13,72742.3,-1.99,-37.33,-37.39,0,*5E
1486116331.29,41744,10.19,72748.3,-1.95,-36.55,-36.73,0,*5B
1486116332.52,41745,10.19,72750.0,-1.97,-36.13,-36.55,0,*5E
1486116333.78,41746,10.19,72738.5,-1.95,-36.01,-35.35,0,*59
1486116335.02,41747,10.13,72740.5,-1.95,-34.71,-35.01,0,*5A
1486116336.22,41748,10.13,72740.5,-1.93,-34.25,-34.25,0,*55
1486116337.44,41749,10.19,72758.0,-1.93,-32.35,-33.43,0,*54
1486116338.67,41750,10.19,72754.3,-1.89,-33.83,-36.61,0,*5E
1486116339.9,41751,10.13,72746.8,-1.89,-38.73,-39.53,0,*55
1486116341.15,41752,10.19,72756.8,-1.91,-39.35,-39.79,0,*54
1486116342.35,41753,10.19,72760.8,-1.93,-39.35,-39.35,0,*5F
1486116343.61,41754,10.19,72756.0,-1.97,-39.15,-39.03,0,*5B
1486116344.84,41755,10.19,72758.5,-1.97,-37.99,-38.85,0,*5F
1486116346.06,41756,10.19,72760.5,-1.99,-38.43,-39.85,0,*5B
1486116347.34,41757,10.19,72764.8,-1.99,-40.59,-40.79,0,*53
1486116348.6,41758,10.19,72764.0,-1.99,-40.09,-40.47,0,*54
1486116349.86,41759,10.19,72762.8,-1.99,-39.91,-40.09,0,*50
1486116351.15,41760,10.19,72764.0,-1.99,-40.41,-40.59,0,*5C
1486116352.38,41761,10.13,72758.8,-2.05,-40.29,-40.53,0,*5F
1486116353.62,41762,10.19,72760.0,-2.07,-40.47,-40.65,0,*53
1486116354.87,41763,10.19,72756.0,-2.05,-40.29,-40.29,0,*50
1486116356.11,41764,10.19,72758.5,-2.07,-40.15,-40.47,0,*52
1486116357.37,41765,10.19,72758.8,-2.07,-41.35,-41.49,0,*5F
1486116358.62,41766,10.19,72752.8,-2.11,-41.03,-41.03,0,*50
1486116359.87,41767,10.19,72754.0,-2.11,-40.59,-40.53,0,*5B
1486116361.13,41768,10.13,72746.3,-2.13,-41.11,-40.97,0,*53
1486116362.36,41769,10.19,72750.8,-2.15,-40.65,-38.49,0,*5A
1486116363.6,41770,10.19,72746.8,-2.15,-38.11,-35.47,0,*5D
1486116364.83,41771,10.19,72740.3,-2.15,-35.89,-35.65,0,*50
1486116366.09,41772,10.19,72744.0,-2.15,-35.53,-38.29,0,*51
1486116367.29,41773,10.19,72744.5,-2.15,-38.35,-39.85,0,*5A
1486116368.53,41774,10.19,72752.0,-2.17,-39.91,-40.15,0,*57
1486116369.76,41775,10.19,72754.5,-2.17,-39.85,-39.85,0,*54
1486116370.99,41776,10.13,72748.3,-2.17,-40.15,-40.35,0,*55
1486116372.22,41777,10.19,72744.0,-2.19,-41.17,-41.35,0,*58
1486116373.43,41778,10.19,72744.5,-2.19,-39.91,-40.03,0,*52
1486116374.71,41779,10.19,72738.3,-2.17,-40.29,-40.29,0,*58
1486116375.94,41780,10.19,72734.3,-2.19,-39.91,-39.97,0,*56
1486116377.17,41781,10.13,72736.0,-2.17,-39.85,-39.91,0,*5A
1486116378.4,41782,10.19,72754.8,-2.19,-40.91,-40.79,0,*54
1486116379.66,41783,10.19,72752.8,-2.23,-40.79,-40.85,0,*59
1486116380.88,41784,10.19,72738.5,-2.23,-39.09,-38.85,0,*58
1486116382.14,41785,10.19,72730.3,-2.23,-39.03,-39.59,0,*53
1486116383.38,41786,10.19,72734.8,-2.27,-36.73,-36.61,0,*58
1486116384.59,41787,10.19,72748.0,-2.27,-33.55,-35.47,0,*5F
1486116385.85,41788,10.19,72752.3,-2.27,-34.83,-36.37,0,*58
1486116387.09,41789,10.19,72758.8,-2.27,-35.29,-37.09,0,*54
1486116388.35,41790,10.19,72758.3,-2.27,-37.69,-38.67,0,*5D
1486116389.61,41791,10.19,72758.8,-2.29,-39.35,-39.71,0,*53
1486116390.87,41792,10.19,72754.5,-2.27,-40.09,-40.21,0,*54
1486116392.11,41793,10.19,72760.0,-2.27,-40.41,-40.65,0,*59
1486116393.4,41794,10.19,72754.0,-2.29,-40.09,-40.29,0,*54
1486116394.66,41795,10.19,72758.3,-2.29,-39.53,-39.91,0,*59
1486116395.92,41796,10.19,72754.0,-2.29,-39.91,-40.29,0,*59
1486116397.16,41797,10.19,72746.3,-2.31,-40.09,-40.35,0,*53
1486116398.43,41798,10.19,72736.5,-2.31,-40.09,-40.09,0,*53
1486116399.68,41799,10.13,72732.5,-2.31,-40.15,-40.29,0,*5D
1486116400.91,41800,10.19,72748.3,-2.31,-40.65,-40.79,0,*50
1486116402.13,41801,10.19,72748.5,-2.33,-40.53,-40.73,0,*5C
1486116403.4,41802,10.19,72758.8,-2.33,-40.41,-40.73,0,*5C
1486116404.64,41803,10.19,72752.3,-2.35,-40.35,-40.59,0,*50
1486116405.9,41804,10.19,72756.3,-2.35,-40.09,-40.21,0,*57
1486116407.17,41805,10.19,72750.0,-2.35,-39.59,-39.59,0,*5C
1486116408.4,41806,10.19,72754.0,-2.35,-39.35,-39.41,0,*5C
1486116409.63,41807,10.19,72764.5,-2.35,-37.99,-38.05,0,*54
1486116410.86,41808,10.19,72770.3,-2.35,-39.23,-39.35,0,*56
1486116412.1,41809,10.19,72762.8,-2.35,-40.09,-40.15,0,*5D
1486116413.37,41810,10.19,72752.3,-2.35,-39.59,-39.53,0,*52
1486116414.6,41811,10.19,72746.8,-2.35,-39.03,-38.97,0,*55
1486116415.86,41812,10.19,72746.5,-2.35,-38.91,-38.91,0,*5A
1486116417.07,41813,10.19,72742.0,-2.35,-38.35,-38.61,0,*5A
1486116418.36,41814,10.19,72738.5,-2.33,-37.99,-37.99,0,*5A
1486116419.6,41815,10.19,72736.0,-2.33,-36.73,-36.43,0,*58
1486116420.83,41816,10.19,72734.8,-2.31,-36.79,-36.85,0,*59
1486116422.11,41817,10.19,72740.0,-2.29,-35.65,-36.25,0,*55
1486116423.36,41818,10.19,72752.5,-2.29,-35.53,-36.97,0,*56
1486116424.62,41819,10.19,72744.8,-2.27,-37.93,-38.67,0,*56
1486116425.88,41820,10.19,72756.0,-2.27,-39.03,-39.41,0,*5E
1486116427.14,41821,10.19,72748.8,-2.29,-39.71,-40.03,0,*5C
1486116428.38,41822,10.19,72762.0,-2.27,-39.85,-40.09,0,*50
1486116429.65,41823,10.19,72758.0,-2.29,-40.85,-40.91,0,*50
1486116430.88,41824,10.19,72748.3,-2.29,-41.29,-41.29,0,*52
1486116432.1,41825,10.19,72756.5,-2.31,-41.03,-41.03,0,*5A
1486116433.37,41826,10.19,72754.5,-2.31,-40.09,-40.09,0,*59
1486116434.61,41827,10.19,72754.5,-2.33,-39.91,-39.91,0,*5A
1486116435.87,41828,10.19,72762.0,-2.33,-38.97,-39.15,0,*5E
1486116437.11,41829,10.19,72768.0,-2.31,-40.03,-40.09,0,*5C
1486116438.33,41830,10.19,72762.5,-2.31,-39.65,-39.65,0,*5E
1486116439.63,41831,10.19,72762.0,-2.33,-39.79,-39.79,0,*5D
1486116440.92,41832,10.19,72762.8,-2.33,-40.09,-39.79,0,*57
1486116442.21,41833,10.19,72762.3,-2.33,-39.71,-39.59,0,*55
1486116443.49,41834,10.19,72762.8,-2.33,-39.41,-39.23,0,*5C
1486116444.79,41835,10.19,72762.5,-2.33,-39.71,-39.71,0,*59
1486116446.05,41836,10.19,72744.0,-2.33,-39.91,-39.71,0,*54
1486116447.32,41837,10.19,72736.5,-2.35,-39.71,-39.23,0,*5A
1486116448.57,41838,10.19,72732.3,-2.35,-40.21,-39.79,0,*51
1486116449.81,41839,10.19,72732.5,-2.37,-39.65,-38.61,0,*54
1486116451.05,41840,10.19,72742.5,-2.37,-38.43,-37.27,0,*52
1486116452.28,41841,10.19,72758.0,-2.37,-38.05,-37.27,0,*51
1486116453.57,41842,10.19,72756.8,-2.37,-36.79,-38.29,0,*56
1486116454.84,41843,10.19,72750.3,-2.39,-37.69,-39.71,0,*55
1486116456.13,41844,10.19,72742.0,-2.37,-38.49,-39.79,0,*59
1486116457.35,41845,10.19,72750.5,-2.39,-39.91,-40.47,0,*51
1486116458.61,41846,10.19,72744.8,-2.37,-41.23,-41.41,0,*5D
1486116459.83,41847,10.19,72746.0,-2.39,-41.41,-41.49,0,*5E
1486116461.11,41848,10.19,72740.5,-2.41,-40.29,-40.29,0,*56
1486116462.39,41849,10.19,72738.5,-2.41,-39.53,-40.09,0,*56
1486116463.65,41850,10.19,72728.8,-2.41,-39.53,-39.91,0,*51
1486116464.88,41851,10.19,72728.8,-2.43,-40.29,-40.53,0,*51
1486116466.11,41852,10.19,72736.0,-2.43,-40.73,-40.79,0,*55
1486116467.35,41853,10.19,72730.5,-2.43,-40.35,-40.41,0,*5D
1486116468.62,41854,10.19,72736.5,-2.43,-40.41,-40.41,0,*59
1486116469.83,41855,10.19,72738.3,-2.45,-40.15,-40.53,0,*5C
1486116471.03,41856,10.19,72736.3,-2.45,-40.53,-40.73,0,*5F
1486116472.25,41857,10.19,72736.3,-2.43,-40.73,-40.91,0,*56
1486116473.5,41858,10.19,72734.5,-2.45,-40.59,-40.79,0,*51
1486116474.71,41859,10.19,72744.0,-2.45,-40.53,-40.91,0,*5C
1486116475.97,41860,10.19,72740.5,-2.45,-40.41,-40.59,0,*51
1486116477.17,41861,10.19,72748.3,-2.49,-40.47,-40.65,0,*55
1486116478.4,41862,10.19,72754.5,-2.49,-40.41,-40.47,0,*50
1486116479.63,41863,10.19,72758.5,-2.49,-40.97,-41.17,0,*5E
1486116480.92,41864,10.19,72750.3,-2.51,-41.35,-41.23,0,*5E
1486116482.18,41865,10.19,72748.8,-2.49,-41.23,-41.35,0,*56
1486116483.43,41866,10.19,72756.3,-2.51,-40.35,-40.41,0,*58
1486116484.69,41867,10.19,72752.0,-2.51,-40.35,-40.41,0,*59
1486116485.92,41868,10.19,72764.5,-2.51,-40.35,-40.35,0,*55
1486116487.2,41869,10.19,72762.3,-2.51,-40.41,-40.41,0,*54
1486116488.46,41870,10.19,72754.0,-2.51,-40.97,-41.03,0,*50
1486116489.7,41871,10.19,72750.3,-2.53,-40.41,-40.47,0,*59
1486116490.9,41872,10.19,72752.0,-2.53,-39.85,-40.03,0,*5C
1486116492.16,41873,10.19,72744.3,-2.53,-38.91,-39.03,0,*57
1486116493.41,41874,10.19,72746.0,-2.53,-39.03,-39.03,0,*5A
1486116494.66,41875,10.19,72742.0,-2.51,-39.23,-39.47,0,*5B
1486116495.91,41876,10.19,72738.3,-2.51,-40.35,-40.59,0,*50
1486116497.17,41877,10.19,72744.5,-2.51,-39.03,-38.97,0,*57